This is the latest recevied weather packets stored in our database for station/object KD2RHT-13. If no packets are shown the sender has not sent any weather packets the latest 10 day(s).
| Time | Temp. | Humidity | Pressure | Rain* | Wind** | Luminosity | Snow |
|---|---|---|---|---|---|---|---|
| 1777905637 | 17.78° C | 55% | 1009 hPa | 0 mm | - | 354 W/m² | - |
| 1777905334 | 17.22° C | 56% | 1008.7 hPa | 0 mm | - | 792 W/m² | - |
| 1777905032 | 17.22° C | 54% | 1008.7 hPa | 0 mm | - | 744 W/m² | - |
| 1777904729 | 16.67° C | 55% | 1008.7 hPa | 0 mm | - | 726 W/m² | - |
| 1777904426 | 16.11° C | 55% | 1008.7 hPa | 0 mm | - | 724 W/m² | - |
| 1777904123 | 16.11° C | 55% | 1008.7 hPa | 0 mm | - | 309 W/m² | - |
| 1777903820 | 16.11° C | 55% | 1009 hPa | 0 mm | - | 336 W/m² | - |
| 1777903516 | 16.67° C | 54% | 1009 hPa | 0 mm | - | 384 W/m² | - |
| 1777903213 | 16.11° C | 55% | 1009 hPa | 0 mm | - | 557 W/m² | - |
| 1777902909 | 16.67° C | 55% | 1009 hPa | 0 mm | - | 514 W/m² | - |
| 1777902606 | 16.67° C | 56% | 1009 hPa | 0 mm | - | 741 W/m² | - |
| 1777902303 | 16.11° C | 54% | 1009.4 hPa | 0 mm | - | 714 W/m² | - |
| 1777902000 | 16.11° C | 55% | 1009.4 hPa | 0 mm | - | 488 W/m² | - |
| 1777901699 | 15.56° C | 56% | 1009 hPa | 0 mm | - | 604 W/m² | - |
| 1777901395 | 15° C | 57% | 1009.4 hPa | 0 mm | - | 579 W/m² | - |
| 1777901093 | 15° C | 58% | 1009.4 hPa | 0 mm | - | 516 W/m² | - |
| 1777900790 | 14.44° C | 58% | 1009.4 hPa | 0 mm | - | 551 W/m² | - |
| 1777900488 | 13.33° C | 60% | 1009.4 hPa | 0 mm | - | 396 W/m² | - |
| 1777900184 | 13.33° C | 60% | 1009.4 hPa | 0 mm | - | 144 W/m² | - |
| 1777899881 | 13.33° C | 60% | 1009.4 hPa | 0 mm | - | 182 W/m² | - |
| 1777899578 | 12.78° C | 60% | 1009.4 hPa | 0 mm | - | 101 W/m² | - |
| 1777899276 | 12.78° C | 60% | 1009.7 hPa | 0 mm | - | 68 W/m² | - |
| 1777898972 | 12.78° C | 61% | 1009.4 hPa | 0 mm | - | 62 W/m² | - |
| 1777898670 | 12.78° C | 60% | 1009.4 hPa | 0 mm | - | 68 W/m² | - |
| 1777898366 | 12.78° C | 60% | 1009.4 hPa | 0 mm | - | 94 W/m² | - |
* Rain latest hour (hover to see other rain measurements)
** Current wind speed in m/s (hover to see current wind gust speed)